Location: Unspecified
(48.7670°N, 0.0000°E)
Time: 03:35:47
(UTC+00:00)

Vanguard 2 Rocket - Pass Details

Date: 09 October 2020
Orbit: 554 x 3326 km, 32.9° (Epoch: 26 October)

Event Time Altitude Azimuth Distance (km) Brightness Sun altitude
Exits shadow 03:20:31 36° 224° (SW) 4,017 9.6 -28.4°
Maximum altitude 03:25:39 42° 193° (SSW) 3,980 9.8 -27.6°
Drops below altitude 10° 03:43:41 10° 132° (SE) 6,220 11.5 -24.9°
Sets 03:48:42 0° 126° (SE) 7,103 11.9 -24.1°
